Torna al catalogo

SL-8 DEB

AttivoLEO
NORAD 27744·DEBRIS·🇷🇺 Russia

Lanciato Feb 12, 1991 da Plesetsk Cosmodrome

Loading…

Prossimi Passaggi (prossime 24 ore)

TLE

AggiornatoSource: Space-Track

Epoca: Sep 14, 2026, 09:42 UTC

1 27744U 91009CZ  26257.40425998 -.00000034  00000-0 -18068-3 0  9991
2 27744  74.0523 130.4274 0175455 184.9337 229.0460 12.18610051476487

Traccia SL-8 DEB in tempo reale con AllMySat

Download on the App Store